Regional Weather Roundup
Issued by NWS

Home | Current Version | Previous Version | Graphics & Text | Print | Product List | Glossary On
Versions: 1 2 3 4 5 6 7 8 9 10 11 12 13 14 15 16 17 18 19 20 21 22 23 24 25 26 27 28 29 30 31 32 33 34 35 36 37 38 39 40 41 42 43 44 45 46 47 48 49 50
000
ASUS43 KLMK 210002
RWRKY
KENTUCKY REGIONAL WEATHER ROUNDUP
NATIONAL WEATHER SERVICE LOUISVILLE KY
800 PM EDT WED AUG 20 2014

NOTE "FAIR" INDICATES FEW OR NO CLOUDS BELOW 12,000 FEET
WITH NO SIGNIFICANT WEATHER AND/OR OBSTRUCTIONS TO VISIBILITY.

KYZ001>023-026-027-061>063-070>075-210100-
WESTERN AND SOUTH CENTRAL KENTUCKY

CITY           SKY/WX    TMP DP  RH WIND       PRES   REMARKS
PADUCAH        MOCLDY    88  76  67 S3        29.94R HX  99
HENDERSON      PTCLDY    81  70  69 E3        29.96R
OWENSBORO      MOCLDY    83  67  58 SE6       29.98R
HOPKINSVILLE   CLOUDY    73  73 100 E15       30.01F
BOWLING GREEN  MOCLDY    73  69  87 SW5       30.03S
GLASGOW        CLOUDY    72  72  99 S5        30.04R
$$

KYZ024-025-028>034-038-045-046-053-210100-
NORTH CENTRAL KENTUCKY

CITY           SKY/WX    TMP DP  RH WIND       PRES   REMARKS
LOUISVILLE/SDF MOCLDY    81  68  64 S8        29.97R
LOUISVILLE/LOU MOCLDY    81  69  67 S3        29.99R
FORT KNOX      CLOUDY    78  73  83 S7        29.98R
$$

KYZ035>037-039>044-047>052-055>060-089>105-210100-
NORTHEAST KENTUCKY

CITY           SKY/WX    TMP DP  RH WIND       PRES   REMARKS
LEXINGTON      CLOUDY    72  67  84 S3        30.02R
COVINGTON      MOCLDY    74  68  81 SW6       29.96S
FRANKFORT      MOCLDY    73  69  87 S6        30.00R
$$

KYZ054-064>069-076>088-106>120-210100-
SOUTHEAST KENTUCKY

CITY           SKY/WX    TMP DP  RH WIND       PRES   REMARKS
JACKSON        LGT RAIN  71  68  90 S5        30.04S
LONDON         CLOUDY    71  67  87 SE5       30.08R
SOMERSET       CLOUDY    70  68  94 SW3       30.09R
MIDDLESBORO    TSTM      69  68  96 CALM      30.12F
MONTICELLO     CLOUDY    71  69  93 CALM      30.10R
$$




USA.gov is the U.S. government's official web portal to all federal, state and local government web resources and services.